Vertical_Velocity
-3 -2 6 -8 1 -6 1 3 3 -4 -2 -2 -4 -0 -2 -1 -0 0 1 -4 7 1 1 1 -2 1 1 1 -22 7 7 3 6 6 1 4 -1 -1 -2 -2 0 0 -1 1 -2 1 0
-4 0 -4 -2 -4 2 -0 2 1 -1 -5 2 1 -2 2 -2 -1 2 -2 5 1 -2 -0 1 2 -2 6 5 -2 -5 3 -0 1 4 -0 3 -5 -2 -2 -1 -2 -2 -3 -2 -0 -2 -0
-3 1 0 -0 -6 -3 -0 0 -2 0 -5 -5 3 -2 -1 -4 -2 -3 3 6 7 -1 4 -1 4 6 11 -26 1 -8 6 1 -3 -1 -1 -1 -0 -2 -0 1 -4 0 -2 -0 -1 -1 -2
3 -5 -0 0 -2 -3 4 1 3 2 1 -3 -3 1 0 -0 -1 -2 0 -0 -2 -0 -1 0 4 16 -2 -2 -1 3 1 5 12 10 4 -1 -1 -2 1 4 -1 -3 -2 -0 -4 1 -4
-8 2 -1 -2 2 1 2 -2 0 -2 -0 3 2 -3 1 -2 -3 1 -2 -4 0 3 -1 -0 2 -1 -7 6 -4 4 5 5 7 7 7 13 3 -3 3 -2 -1 1 -1 0 -4 -0 -0
2 -2 -5 2 3 -0 -1 -7 2 3 1 3 4 -0 1 -1 1 -2 2 -4 -2 0 -3 3 5 1 -1 -3 -8 3 8 6 1 2 14 10 7 -1 1 1 -4 -1 0 0 -1 -1 0
4 1 1 -2 -6 2 -1 -5 1 6 2 -5 2 1 -1 -3 2 4 -2 -15 -10 -0 1 -8 2 -6 5 5 8 -3 6 2 4 7 1 4 2 -4 -7 -2 -2 -2 -1 -1 -1 -0 2
-1 1 -2 -2 -2 -1 1 -5 5 -2 -2 3 -0 2 2 -6 -0 10 0 -2 -2 -0 -6 -0 -2 3 -4 16 -4 -4 6 -0 0 -0 0 1 0 1 -1 0 -2 -0 -1 -0 -1 -0 1
-0 7 -1 -9 3 1 -3 -3 -6 -3 1 3 4 4 3 0 -1 -2 -2 -2 7 -1 3 2 1 -4 4 -3 -1 -1 3 0 -1 1 0 -3 2 -1 -2 1 1 1 -1 -0 -2 -1 -0
-3 7 -1 -2 3 -4 2 0 -1 4 6 -2 -0 3 3 10 -3 3 -5 9 -1 1 -6 0 -1 -3 -0 18 -4 1 -5 1 -1 -1 -0 -0 3 -3 1 -0 -2 -1 -1 -1 -1 -3 -3
-1 -0 1 7 2 -4 2 -5 -1 -7 4 1 3 2 -3 1 -0 -5 -4 -3 -2 0 -12 -8 2 10 -7 5 -16 7 -1 4 -1 1 -5 -1 1 1 0 -4 -2 -2 -1 -1 -1 -1 -1
2 2 0 -8 2 4 -6 2 -4 -5 1 -1 -4 -0 1 1 -3 4 -1 0 -2 -18 -8 0 1 -1 3 7 2 5 -2 6 -0 -3 -1 2 1 -1 -1 1 -0 -1 -3 -2 -1 -1 -3
2 0 3 -3 -6 4 1 2 -5 -4 4 -2 2 2 -5 -2 -3 -8 -4 -3 -13 -8 -2 0 1 -0 -1 3 4 -1 1 -1 -3 -6 -1 -2 -0 0 -4 -5 -2 -2 -3 -3 -7 -6 -4
0 2 1 -1 -3 -2 -0 2 -2 -0 3 -0 -11 6 3 -3 5 3 2 -7 -10 1 -0 3 -1 -0 -3 -1 5 1 0 -1 -2 -2 -1 -2 1 -0 0 -3 -7 1 -5 -6 -3 -1 -2
1 -1 1 -2 2 -4 2 3 -3 1 -3 -4 0 -0 -5 -2 -1 4 5 -6 -2 1 2 -0 0 -4 1 -1 -5 -2 -0 -1 -0 -0 -6 -2 -1 -0 -0 -0 -5 -1 -4 -2 -5 -0 -3
-3 -0 2 -1 2 -0 -4 2 1 -2 -1 -2 -2 -2 -4 3 -0 1 -5 0 -1 -0 1 -2 -1 -3 -1 0 -3 -3 -1 1 1 0 -1 -0 -4 -0 1 -3 -1 -5 -4 -8 -4 -3 -1
-2 -2 4 -1 -1 4 -3 -2 3 -4 0 -1 -0 -4 -7 1 2 -4 -1 1 -0 -2 5 -1 -1 -1 -0 -2 -2 0 1 1 -0 0 -1 -1 -7 0 -1 -0 -4 0 -0 -3 -6 -2 -3
-0 -4 1 2 -1 -1 1 -4 2 -2 -3 1 2 -6 0 -5 -10 0 0 2 -0 -1 1 -0 -3 -2 -1 -0 -0 -0 -2 -1 -0 -2 -1 1 -2 -0 1 0 0 -1 -2 -3 -6 -3 0
0 -2 -1 2 -2 -1 -2 -3 0 1 -3 1 0 -1 -0 -3 -2 -2 -4 -1 1 -1 0 -0 0 -2 -0 -1 -5 -1 -0 1 -0 -1 -3 -2 -1 -2 -3 -1 -2 -0 1 -1 -1 -3 -2
1 -2 -3 -1 1 -3 -2 -1 -1 0 1 -3 1 -6 -4 -1 -4 1 0 -1 -1 -0 -0 -0 -0 -2 -2 -1 -1 -0 0 -0 0 -0 1 -5 -0 -5 -8 -8 -3 0 1 0 -4 -3 -3
0 -2 -1 1 -1 1 -6 -3 -3 -1 1 1 -1 0 2 -2 -2 -0 1 1 -0 -2 0 -0 -0 -1 -2 -1 -0 0 0 1 -1 5 -1 -5 -2 -1 -1 -0 -0 -1 -1 0 -0 -3 -6
-1 -1 -2 4 -1 3 -1 -5 -4 -5 1 -2 -0 -0 -1 -2 -0 -0 -1 -0 0 -0 0 -0 -5 1 -1 -2 -3 -3 -3 -1 -3 0 -1 -1 -1 -1 -1 -0 0 0 -0 0 -0 -0 1
-3 -0 -0 1 -1 -0 -3 -2 -2 -7 -1 0 -1 -1 4 -1 -1 -1 -1 -1 1 -1 3 0 -1 -2 -3 1 0 0 1 -1 -4 -5 -0 -2 -2 -2 -3 0 -0 -1 -6 -2 -1 -0 -4
-3 -4 -1 0 -0 -1 -1 -5 -1 -3 -3 3 -0 1 1 -3 -0 -1 0 1 0 1 -4 1 -1 -3 -1 1 3 0 -5 -1 -2 1 -1 -1 -1 -1 -1 -3 -4 -14 -0 -3 -4 -2 0
-0 -2 -1 0 0 2 -0 -1 -3 -2 -3 1 1 1 3 -1 1 -2 -1 -0 -0 2 -2 -1 0 1 -0 0 -3 -2 -3 -2 0 1 0 -2 -1 -1 -1 -0 -10 -2 1 -4 -5 -3 -1
-1 -1 -0 0 2 1 -1 -0 -0 2 -4 -2 2 -2 3 4 -5 2 1 1 -1 0 -2 -0 1 1 0 -1 -1 -1 -1 -2 2 1 -0 -1 -2 -5 1 1 -1 -2 0 1 -2 -3 -0
-2 -0 -2 0 3 -0 0 -0 1 -3 1 -2 0 -0 2 2 -4 3 -1 -2 1 0 -2 1 -0 -1 1 -0 -1 -1 -1 -3 -1 -1 0 1 1 -1 -0 -0 -8 -4 -1 -1 -7 -7 0
-5 -3 -0 0 2 -1 -2 -1 -2 -6 1 2 -4 -2 4 2 -10 0 2 1 1 1 -1 -1 -4 -3 -1 -2 -2 -1 -1 -2 -1 -3 -3 -4 -3 -1 1 1 -8 -1 -1 -1 -3 -1 -1
-3 -2 -1 1 -0 3 1 -2 -7 2 2 -1 -4 2 7 1 -3 1 -2 0 1 4 -1 0 -0 -1 -1 -2 -0 -1 1 1 -1 -1 0 0 -8 -7 -9 -12 -3 1 -2 1 1 -1 -1
Height
1526 1522 1520 1515 1511 1507 1503 1498 1493 1488 1484 1480 1476 1473 1469 1466 1463 1460 1458 1457 1456 1455 1455 1455 1455 1455 1456 1453 1449 1450 1450 1452 1455 1463 1467 1473 1478 1482 1485 1487 1489 1491 1492 1493 1493 1494 1496
1525 1521 1516 1512 1508 1503 1498 1494 1489 1485 1481 1477 1473 1469 1465 1462 1459 1456 1454 1453 1452 1451 1451 1450 1450 1450 1451 1446 1447 1447 1449 1449 1451 1458 1464 1470 1474 1479 1482 1484 1487 1487 1490 1491 1492 1493 1494
1524 1519 1514 1509 1505 1502 1496 1491 1487 1482 1478 1473 1469 1466 1461 1458 1456 1453 1451 1449 1448 1447 1446 1446 1446 1447 1443 1443 1444 1446 1447 1448 1451 1456 1460 1467 1472 1477 1480 1483 1484 1487 1490 1491 1490 1491 1493
1521 1515 1512 1506 1501 1497 1493 1488 1484 1479 1474 1470 1465 1462 1458 1455 1452 1450 1448 1446 1444 1443 1443 1443 1444 1445 1439 1440 1443 1443 1444 1447 1452 1456 1461 1467 1472 1477 1480 1480 1483 1489 1492 1496 1487 1487 1489
1518 1515 1509 1504 1501 1494 1490 1486 1480 1475 1470 1466 1462 1458 1455 1452 1449 1447 1445 1443 1441 1439 1438 1440 1442 1442 1440 1439 1440 1443 1445 1447 1450 1455 1461 1468 1473 1476 1480 1482 1489 1489 1498 1496 1490 1486 1487
1514 1510 1507 1502 1497 1492 1487 1482 1477 1472 1467 1462 1458 1454 1450 1448 1446 1444 1442 1440 1437 1435 1435 1438 1441 1446 1438 1436 1438 1442 1445 1446 1449 1455 1462 1468 1471 1474 1478 1479 1486 1487 1492 1493 1493 1487 1488
1515 1508 1504 1499 1495 1489 1483 1479 1474 1469 1464 1459 1454 1450 1447 1444 1443 1441 1440 1437 1438 1436 1434 1433 1436 1433 1431 1434 1435 1439 1444 1447 1448 1452 1455 1460 1463 1465 1468 1476 1478 1484 1488 1489 1490 1488 1488
1512 1507 1502 1498 1493 1487 1481 1476 1471 1466 1461 1454 1449 1445 1443 1440 1439 1438 1438 1437 1437 1438 1434 1430 1431 1431 1431 1436 1436 1441 1446 1449 1448 1452 1456 1457 1460 1464 1469 1473 1478 1483 1488 1489 1488 1488 1489
1511 1506 1501 1496 1492 1485 1479 1474 1469 1463 1456 1449 1443 1440 1438 1437 1436 1436 1435 1436 1435 1436 1436 1432 1431 1433 1434 1436 1439 1442 1447 1447 1448 1453 1456 1456 1460 1463 1469 1474 1478 1484 1487 1489 1491 1491 1493
1510 1506 1500 1495 1490 1484 1478 1472 1467 1460 1453 1445 1437 1430 1429 1432 1435 1434 1434 1431 1433 1435 1448 1435 1433 1432 1433 1433 1440 1444 1447 1449 1451 1453 1455 1459 1462 1465 1471 1475 1479 1487 1484 1488 1490 1493 1502
1507 1505 1500 1495 1488 1482 1477 1470 1465 1459 1451 1442 1434 1427 1424 1426 1430 1433 1433 1432 1434 1436 1477 1435 1433 1432 1432 1436 1439 1444 1447 1447 1452 1454 1459 1468 1463 1468 1474 1473 1477 1483 1486 1490 1494 1502 1504
1507 1503 1499 1493 1489 1481 1476 1470 1464 1458 1452 1443 1436 1430 1429 1429 1429 1432 1433 1434 1436 1449 1449 1433 1432 1433 1431 1436 1439 1445 1448 1450 1453 1457 1461 1464 1465 1469 1472 1476 1476 1484 1489 1496 1504 1508 1521
1507 1502 1498 1492 1486 1481 1476 1470 1464 1458 1453 1447 1440 1436 1433 1432 1434 1435 1435 1437 1449 1450 1437 1432 1432 1428 1430 1436 1442 1447 1448 1453 1456 1466 1472 1468 1472 1472 1473 1481 1483 1484 1488 1499 1519 1526 1511
1507 1502 1498 1492 1486 1480 1475 1470 1464 1459 1455 1452 1447 1442 1439 1437 1437 1437 1436 1439 1449 1436 1434 1433 1432 1433 1433 1438 1446 1448 1450 1457 1459 1462 1476 1480 1478 1473 1476 1478 1484 1489 1490 1510 1503 1513 1506
1505 1501 1497 1492 1486 1479 1473 1468 1464 1460 1456 1454 1451 1449 1444 1443 1441 1440 1440 1447 1449 1441 1438 1434 1434 1437 1441 1444 1445 1455 1455 1459 1462 1461 1467 1480 1482 1476 1477 1478 1481 1490 1503 1499 1516 1525 1530
1504 1500 1496 1491 1486 1479 1473 1468 1465 1460 1457 1454 1451 1450 1447 1445 1444 1442 1441 1440 1445 1443 1438 1436 1436 1443 1449 1448 1450 1456 1454 1458 1461 1462 1462 1472 1485 1478 1480 1480 1484 1485 1493 1507 1525 1516 1506
1503 1500 1496 1491 1486 1479 1474 1468 1465 1461 1457 1454 1451 1449 1448 1444 1444 1444 1444 1443 1443 1440 1440 1437 1442 1445 1451 1452 1451 1455 1458 1461 1460 1464 1462 1469 1477 1484 1481 1485 1489 1491 1498 1502 1506 1512 1506
1501 1498 1496 1491 1486 1480 1474 1469 1464 1460 1456 1455 1452 1452 1449 1445 1444 1445 1444 1444 1443 1441 1438 1437 1439 1442 1447 1449 1451 1454 1459 1459 1460 1461 1467 1470 1479 1482 1483 1483 1483 1483 1491 1498 1514 1518 1512
1500 1497 1495 1491 1486 1480 1475 1470 1464 1461 1458 1456 1454 1451 1450 1448 1450 1447 1445 1443 1442 1439 1438 1436 1438 1440 1444 1449 1454 1455 1457 1460 1460 1462 1466 1470 1487 1505 1488 1486 1487 1488 1489 1493 1501 1510 1529
1499 1495 1492 1489 1486 1480 1475 1470 1466 1461 1459 1457 1456 1456 1452 1451 1453 1452 1448 1443 1441 1439 1439 1439 1441 1442 1445 1451 1453 1457 1459 1460 1460 1462 1464 1467 1482 1486 1495 1488 1488 1492 1485 1491 1495 1515 1508
1498 1494 1492 1489 1485 1480 1475 1470 1467 1462 1459 1459 1458 1460 1459 1457 1452 1452 1451 1446 1444 1445 1441 1440 1443 1444 1446 1454 1455 1459 1460 1461 1463 1464 1466 1470 1487 1487 1483 1480 1487 1483 1482 1489 1496 1491 1501
1496 1493 1491 1489 1485 1480 1476 1471 1467 1463 1460 1460 1461 1461 1460 1458 1455 1453 1452 1448 1446 1446 1445 1444 1448 1448 1447 1451 1452 1458 1458 1460 1461 1467 1469 1473 1488 1489 1491 1479 1483 1485 1482 1483 1486 1485 1485
1495 1493 1489 1488 1485 1481 1476 1472 1468 1465 1462 1461 1462 1461 1461 1457 1456 1455 1454 1450 1446 1445 1448 1447 1449 1449 1451 1454 1452 1453 1455 1456 1459 1465 1471 1473 1485 1492 1495 1482 1480 1481 1471 1473 1476 1474 1470
1492 1490 1488 1486 1484 1481 1476 1472 1470 1467 1465 1464 1464 1463 1462 1459 1456 1455 1452 1450 1447 1445 1447 1450 1449 1451 1456 1454 1456 1457 1457 1460 1462 1466 1466 1476 1481 1487 1495 1483 1488 1460 1456 1459 1462 1460 1463
1490 1488 1486 1484 1482 1480 1476 1473 1470 1468 1466 1464 1463 1464 1463 1459 1457 1452 1451 1450 1450 1449 1449 1452 1452 1453 1454 1455 1458 1463 1466 1464 1468 1467 1467 1467 1474 1482 1484 1495 1476 1451 1455 1459 1459 1454 1454
1488 1486 1484 1482 1481 1478 1476 1473 1470 1468 1466 1463 1463 1463 1463 1461 1455 1454 1451 1450 1451 1453 1453 1453 1454 1454 1455 1457 1460 1458 1469 1466 1468 1470 1469 1469 1472 1481 1484 1480 1477 1453 1450 1450 1450 1457 1451
1485 1483 1482 1480 1477 1476 1473 1472 1470 1467 1465 1463 1461 1462 1461 1460 1453 1452 1452 1450 1449 1451 1454 1453 1453 1455 1455 1460 1463 1470 1465 1460 1464 1464 1468 1471 1473 1475 1475 1476 1471 1454 1450 1451 1457 1459 1448
1482 1480 1478 1476 1475 1473 1471 1469 1467 1465 1464 1462 1460 1460 1460 1457 1451 1450 1451 1450 1449 1449 1452 1453 1455 1455 1457 1462 1465 1467 1468 1462 1465 1463 1464 1465 1470 1470 1474 1476 1477 1450 1450 1453 1451 1447 1446
1478 1477 1475 1473 1471 1469 1466 1465 1464 1461 1460 1459 1458 1458 1457 1456 1451 1448 1449 1448 1449 1449 1450 1451 1452 1451 1453 1459 1464 1462 1459 1461 1461 1459 1462 1466 1463 1466 1465 1463 1450 1449 1450 1448 1447 1446 1444